Saratoga Shively Field Airpor, WY

5:06 AM MDT on September 19, 2019 (GMT -0600)
Shively

Weather History for KSAA - August, 2019

Change the Weather History Date:

Thursday, August 22, 2019

  Actual Average Record
Temperature  
Mean Temperature 71 °F -  
Max Temperature 87 °F 79 °F 86 °F (2016)
Min Temperature 55 °F 46 °F 42 °F (2017)
Cooling Degree Days 6    
Growing Degree Days 21 (Base 50)    
Moisture  
Dew Point 36 °F    
Average Humidity 34    
Maximum Humidity 68    
Minimum Humidity 9    
Precipitation  
Precipitation 0.00 in - - ()
Sea Level Pressure  
Sea Level Pressure 30.08 in    
Wind  
Wind Speed 11 mph ()    
Max Wind Speed 23 mph    
Max Gust Speed 40 mph    
Visibility 10.0 miles    
Events Thunderstorm    
Averages and records for this station are not official NWS values.
T = Trace of Precipitation, MM = Missing Value Source: Averaged Metar Reports

Daily Weather History Graph

Daily Weather History Graph

Search for Another Location

Airport or City:

Astronomy

Aug. 22, 2019 Rise Set
Actual Time 6:23 AM MDT 7:56 PM MDT
Civil Twilight 5:54 AM MDT 8:25 PM MDT
Nautical Twilight 5:18 AM MDT 9:00 PM MDT
Astronomical Twilight 4:41 AM MDT 9:37 PM MDT
Moon 11:43 PM MDT (8/22) 1:06 PM MDT (8/22)
Length of Visible Light 14h 31m
Length of Day
13h 33m
Waning Gibbous, 59% of the Moon is Illuminated
Aug 22
Waning Gibbous
Aug 23
Last Quarter
Aug 30
New
Sep 5
First Quarter
Sep 13
Full

Hourly Weather History & Observations

Time (MDT) Temp. Dew Point Humidity Pressure Visibility Wind Dir Wind Speed Gust Speed Precip Events Conditions
12:15 AM 62.6 °F 44.6 °F 52% 30.18 in 10.0 mi SE 5.8 mph - N/A Thunderstorm Clear
12:35 AM 64.4 °F 44.6 °F 49% 30.17 in 10.0 mi SSE 9.2 mph - N/A   Clear
12:55 AM 60.8 °F 46.4 °F 59% 30.15 in 10.0 mi South 15.0 mph - N/A   Clear
1:20 AM 60.8 °F 48.2 °F 63% 30.14 in 10.0 mi South 13.8 mph - N/A   Clear
1:35 AM 60.8 °F 48.2 °F 63% 30.13 in 10.0 mi South 16.1 mph - N/A   Clear
1:55 AM 60.8 °F 46.4 °F 59% 30.13 in 10.0 mi SSE 17.3 mph 23.0 mph N/A   Clear
2:15 AM 60.8 °F 48.2 °F 63% 30.12 in 10.0 mi SSE 17.3 mph 25.3 mph N/A   Clear
2:35 AM 60.8 °F 50.0 °F 68% 30.11 in 10.0 mi SSE 17.3 mph 23.0 mph N/A   Clear
2:55 AM 60.8 °F 50.0 °F 68% 30.11 in 10.0 mi SE 16.1 mph 23.0 mph N/A   Clear
3:15 AM 60.8 °F 48.2 °F 63% 30.11 in 10.0 mi SE 16.1 mph 20.7 mph N/A   Clear
3:35 AM 60.8 °F 48.2 °F 63% 30.11 in 10.0 mi SE 17.3 mph 21.9 mph N/A   Clear
3:55 AM 60.8 °F 48.2 °F 63% 30.11 in 10.0 mi SE 15.0 mph 20.7 mph N/A   Clear
4:15 AM 59.0 °F 48.2 °F 67% 30.10 in 10.0 mi ESE 11.5 mph - N/A   Clear
4:35 AM 59.0 °F 46.4 °F 63% 30.10 in 10.0 mi SE 13.8 mph - N/A   Clear
4:55 AM 59.0 °F 46.4 °F 63% 30.09 in 10.0 mi SE 13.8 mph - N/A   Clear
5:15 AM 59.0 °F 44.6 °F 59% 30.09 in 10.0 mi SE 11.5 mph 17.3 mph N/A   Clear
5:40 AM 59.0 °F 44.6 °F 59% 30.09 in 10.0 mi SE 12.7 mph - N/A   Clear
5:55 AM 57.2 °F 44.6 °F 63% 30.09 in 10.0 mi ESE 8.1 mph - N/A   Clear
6:15 AM 55.4 °F 44.6 °F 67% 30.09 in 10.0 mi SSE 9.2 mph - N/A   Clear
6:35 AM 55.4 °F 42.8 °F 63% 30.10 in 10.0 mi SSE 5.8 mph - N/A   Clear
6:55 AM 55.4 °F 42.8 °F 63% 30.09 in 10.0 mi SSE 6.9 mph - N/A   Clear
7:15 AM 59.0 °F 41.0 °F 51% 30.09 in 10.0 mi SSE 8.1 mph - N/A   Clear
7:35 AM 59.0 °F 41.0 °F 51% 30.10 in 10.0 mi South 10.4 mph - N/A   Clear
7:55 AM 62.6 °F 39.2 °F 42% 30.10 in 10.0 mi SE 9.2 mph - N/A   Clear
8:15 AM 64.4 °F 37.4 °F 37% 30.10 in 10.0 mi SSE 9.2 mph 17.3 mph N/A   Clear
8:35 AM 64.4 °F 37.4 °F 37% 30.10 in 10.0 mi ESE 12.7 mph 18.4 mph N/A   Clear
8:55 AM 66.2 °F 37.4 °F 35% 30.10 in 10.0 mi ESE 13.8 mph - N/A   Clear
9:15 AM 68.0 °F 37.4 °F 33% 30.10 in 10.0 mi ESE 10.4 mph 17.3 mph N/A   Clear
9:35 AM 71.6 °F 39.2 °F 31% 30.10 in 10.0 mi ESE 8.1 mph - N/A   Clear
9:55 AM 73.4 °F 37.4 °F 27% 30.10 in 10.0 mi East 11.5 mph - N/A   Clear
10:15 AM 75.2 °F 37.4 °F 25% 30.09 in 10.0 mi East 9.2 mph - N/A   Clear
10:35 AM 77.0 °F 35.6 °F 22% 30.09 in 10.0 mi WSW 12.7 mph 18.4 mph N/A   Clear
10:55 AM 82.4 °F 28.4 °F 14% 30.08 in 10.0 mi SW 20.7 mph 26.5 mph N/A   Clear
11:15 AM 80.6 °F 28.4 °F 15% 30.08 in 10.0 mi SW 19.6 mph 29.9 mph N/A   Clear
11:35 AM 82.4 °F 28.4 °F 14% 30.07 in 10.0 mi SW 20.7 mph 24.2 mph N/A   Clear
11:55 AM 82.4 °F 28.4 °F 14% 30.07 in 10.0 mi SW 16.1 mph 23.0 mph N/A   Clear
12:15 PM 86.0 °F 28.4 °F 12% 30.07 in 10.0 mi WSW 12.7 mph 24.2 mph N/A   Clear
12:35 PM 84.2 °F 28.4 °F 13% 30.07 in 10.0 mi SW 16.1 mph 26.5 mph N/A   Clear
12:55 PM 84.2 °F 28.4 °F 13% 30.07 in 10.0 mi SW 16.1 mph 25.3 mph N/A   Clear
1:15 PM 86.0 °F 26.6 °F 12% 30.06 in 10.0 mi SSW 16.1 mph 24.2 mph N/A   Clear
1:30 PM 84.2 °F 24.8 °F 11% 30.05 in 10.0 mi West 11.5 mph 16.1 mph N/A   Clear
1:55 PM 87.8 °F 24.8 °F 10% 30.05 in 10.0 mi SW 13.8 mph 19.6 mph N/A   Clear
2:15 PM 86.0 °F 24.8 °F 11% 30.04 in 10.0 mi West 6.9 mph 21.9 mph N/A   Clear
2:35 PM 87.8 °F 23.0 °F 9% 30.04 in 10.0 mi SW 12.7 mph 19.6 mph N/A   Clear
2:55 PM 86.0 °F 24.8 °F 11% 30.03 in 10.0 mi SSW 10.4 mph - N/A   Clear
3:15 PM 87.8 °F 24.8 °F 10% 30.03 in 10.0 mi SSW 11.5 mph 21.9 mph N/A   Clear
3:35 PM 84.2 °F 23.0 °F 11% 30.02 in 10.0 mi SW 12.7 mph 19.6 mph N/A   Clear
3:55 PM 78.8 °F 26.6 °F 15% 30.03 in 10.0 mi West 23.0 mph 40.3 mph N/A   Scattered Clouds
4:15 PM 78.8 °F 26.6 °F 15% 30.02 in 10.0 mi West 10.4 mph 26.5 mph N/A   Clear
4:35 PM 80.6 °F 26.6 °F 14% 30.03 in 10.0 mi West 5.8 mph - N/A   Clear
4:55 PM 78.8 °F 28.4 °F 16% 30.03 in 10.0 mi Calm Calm - N/A   Clear
5:15 PM 78.8 °F 30.2 °F 17% 30.05 in 10.0 mi NNW 3.5 mph - N/A   Clear
5:35 PM 77.0 °F 28.4 °F 17% 30.05 in 10.0 mi SSE 4.6 mph - N/A   Scattered Clouds
5:55 PM 77.0 °F 28.4 °F 17% 30.04 in 10.0 mi ESE 5.8 mph - N/A   Scattered Clouds
6:15 PM 77.0 °F 28.4 °F 17% 30.03 in 10.0 mi ESE 9.2 mph - N/A   Clear
6:35 PM 73.4 °F 32.0 °F 22% 30.03 in 10.0 mi SE 9.2 mph - N/A   Clear
6:55 PM 73.4 °F 32.0 °F 22% 30.03 in 10.0 mi ESE 13.8 mph - N/A   Clear
7:15 PM 71.6 °F 32.0 °F 23% 30.03 in 10.0 mi ESE 15.0 mph 18.4 mph N/A   Clear
7:35 PM 71.6 °F 32.0 °F 23% 30.03 in 10.0 mi ESE 12.7 mph 16.1 mph N/A   Clear
8:15 PM 69.8 °F 32.0 °F 25% 30.06 in 10.0 mi SE 12.7 mph 18.4 mph N/A   Clear
8:35 PM 69.8 °F 32.0 °F 25% 30.05 in 10.0 mi ESE 12.7 mph 19.6 mph N/A   Clear
8:55 PM 68.0 °F 32.0 °F 26% 30.05 in 10.0 mi SE 12.7 mph - N/A   Clear
9:15 PM 64.4 °F 32.0 °F 30% 30.06 in 10.0 mi SSE 8.1 mph - N/A   Clear
9:35 PM 64.4 °F 32.0 °F 30% 30.06 in 10.0 mi SSE 9.2 mph - N/A   Clear
9:55 PM 64.4 °F 32.0 °F 30% 30.06 in 10.0 mi SSE 9.2 mph - N/A   Clear
10:15 PM 66.2 °F 32.0 °F 28% 30.06 in 10.0 mi SSE 12.7 mph - N/A   Clear
10:35 PM 66.2 °F 32.0 °F 28% 30.06 in 10.0 mi SSE 13.8 mph - N/A   Clear
10:55 PM 66.2 °F 32.0 °F 28% 30.06 in 10.0 mi SSE 11.5 mph 18.4 mph N/A   Clear
11:15 PM 68.0 °F 30.2 °F 24% 30.06 in 10.0 mi SE 15.0 mph - N/A   Clear
11:35 PM 66.2 °F 32.0 °F 28% 30.07 in 10.0 mi SE 13.8 mph - N/A   Clear
11:55 PM 64.4 °F 32.0 °F 30% 30.07 in 10.0 mi SSE 11.5 mph - N/A   Clear